TEVEL2-4

Last updated on Mon Sep 21 2026 00:03:15 GMT+0000 (Coordinated Universal Time)

1 63213U 25052D 26263.21936969 .00014223 00000+0 38600-3 0 9994 2 63213 97.3755 159.9100 0004504 109.0590 251.1143 15.37703937 84706
UTC large
Height (km)
Speed (km/s)
/
Latitude / Longitude
Inclination (degrees)
Orbital Period (minutes)
Azimuth
Elevation
Range (km)
Doppler Factor

Next 0 passes for location: London (51.5072 / 0.1276)

No passes found over London.
TEVEL2-4